| time (UTC) | temp F | wind direction | speed MPH | gust MPH | rain 1hr in | rain 24hr in | rain mn in | humidity % | barometer mb |
| 20260504195428 | 80 | 166 | 10.0 | 20.0 | 0.00 | 0.00 | 0.00 | 48 | 1008.3 |
| 20260504194924 | 80 | 216 | 10.0 | 18.0 | 0.00 | 0.00 | 0.00 | 48 | 1008.4 |
| 20260504194637 | 80 | 243 | 9.0 | 17.0 | 0.00 | 0.00 | 0.00 | 47 | 1008.4 |
| 20260504193857 | 80 | 147 | 8.0 | 17.0 | 0.00 | 0.00 | 0.00 | 46 | 1008.4 |
| 20260504193329 | 80 | 203 | 8.0 | 16.0 | 0.00 | 0.00 | 0.00 | 46 | 1008.5 |
| 20260504192827 | 80 | 242 | 8.0 | 16.0 | 0.00 | 0.00 | 0.00 | 47 | 1008.6 |
| 20260504192519 | 80 | 236 | 9.0 | 19.0 | 0.00 | 0.00 | 0.00 | 45 | 1008.7 |
| 20260504191755 | 80 | 259 | 9.0 | 19.0 | 0.00 | 0.00 | 0.00 | 46 | 1008.9 |
| 20260504191452 | 80 | 155 | 9.0 | 17.0 | 0.00 | 0.00 | 0.00 | 46 | 1009.0 |
| 20260504190705 | 79 | 133 | 8.0 | 17.0 | 0.00 | 0.00 | 0.00 | 46 | 1009.0 |
| 20260504190138 | 79 | 128 | 9.0 | 21.0 | 0.00 | 0.00 | 0.00 | 45 | 1009.0 |
| 20260504185613 | 79 | 214 | 10.0 | 21.0 | 0.00 | 0.00 | 0.00 | 47 | 1009.1 |
| 20260504185044 | 79 | 219 | 9.0 | 21.0 | 0.00 | 0.00 | 0.00 | 44 | 1009.1 |
| 20260504184541 | 80 | 263 | 8.0 | 18.0 | 0.00 | 0.00 | 0.00 | 44 | 1009.2 |
| 20260504184017 | 79 | 211 | 8.0 | 18.0 | 0.00 | 0.00 | 0.00 | 45 | 1009.3 |
| 20260504183512 | 79 | 229 | 8.0 | 19.0 | 0.00 | 0.00 | 0.00 | 44 | 1009.4 |
| 20260504183011 | 79 | 231 | 8.0 | 19.0 | 0.00 | 0.00 | 0.00 | 45 | 1009.5 |
| 20260504182706 | 78 | 131 | 9.0 | 16.0 | 0.00 | 0.00 | 0.00 | 43 | 1009.6 |
| 20260504181920 | 78 | 237 | 9.0 | 20.0 | 0.00 | 0.00 | 0.00 | 43 | 1009.8 |
| 20260504181350 | 78 | 165 | 9.0 | 20.0 | 0.00 | 0.00 | 0.00 | 43 | 1009.8 |
| 20260504180848 | 78 | 217 | 10.0 | 19.0 | 0.00 | 0.00 | 0.00 | 43 | 1009.8 |
| 20260504180320 | 78 | 222 | 11.0 | 22.0 | 0.00 | 0.00 | 0.00 | 42 | 1009.7 |
| 20260504175817 | 78 | 174 | 12.0 | 22.0 | 0.00 | 0.00 | 0.00 | 43 | 1009.7 |
| 20260504175314 | 78 | 217 | 12.0 | 21.0 | 0.00 | 0.00 | 0.00 | 43 | 1010.1 |
| 20260504174813 | 77 | 123 | 12.0 | 21.0 | 0.00 | 0.00 | 0.00 | 42 | 1010.2 |
| 20260504174247 | 77 | 150 | 11.0 | 20.0 | 0.00 | 0.00 | 0.00 | 42 | 1010.1 |
| 20260504173721 | 77 | 224 | 11.0 | 20.0 | 0.00 | 0.00 | 0.00 | 45 | 1010.3 |
| 20260504173155 | 77 | 226 | 10.0 | 25.0 | 0.00 | 0.00 | 0.00 | 44 | 1010.2 |
| 20260504172627 | 77 | 190 | 9.0 | 25.0 | 0.00 | 0.00 | 0.00 | 43 | 1010.2 |
| 20260504172123 | 77 | 252 | 9.0 | 19.0 | 0.00 | 0.00 | 0.00 | 44 | 1010.4 |
| 20260504171559 | 76 | 250 | 9.0 | 19.0 | 0.00 | 0.00 | 0.00 | 46 | 1010.6 |
| 20260504171045 | 76 | 221 | 8.0 | 17.0 | 0.00 | 0.00 | 0.00 | 47 | 1010.8 |
| 20260504170549 | 76 | 155 | 9.0 | 18.0 | 0.00 | 0.00 | 0.00 | 47 | 1010.7 |
| 20260504160204 | 73 | 251 | 10.0 | 25.0 | 0.00 | 0.00 | 0.00 | 52 | 1011.7 |
| 20260504160150 | 73 | 168 | 11.0 | 25.0 | 0.00 | 0.00 | 0.00 | 51 | 1011.9 |
| 20260504151144 | 70 | 147 | 9.0 | 20.0 | 0.00 | 0.00 | 0.00 | 58 | 1012.1 |
| 20260504150348 | 70 | 217 | 9.0 | 18.0 | 0.00 | 0.00 | 0.00 | 59 | 1011.9 |
| 20260504140620 | 67 | 219 | 9.0 | 19.0 | 0.00 | 0.00 | 0.00 | 63 | 1012.4 |
| 20260504140602 | 67 | 210 | 8.0 | 16.0 | 0.00 | 0.00 | 0.00 | 63 | 1012.4 |
| 20260504130450 | 64 | 127 | 5.0 | 14.0 | 0.00 | 0.00 | 0.00 | 68 | 1012.5 |
| 20260504130145 | 64 | 179 | 5.0 | 11.0 | 0.00 | 0.00 | 0.00 | 68 | 1012.5 |
| 20260504090124 | 63 | 230 | 5.0 | 12.0 | 0.00 | 0.00 | 0.00 | 62 | 1012.5 |
| 20260504081903 | 65 | 156 | 6.0 | 12.0 | 0.00 | 0.00 | 0.00 | 58 | 1012.6 |
| 20260504081601 | 65 | 271 | 6.0 | 15.0 | 0.00 | 0.00 | 0.00 | 58 | 1012.6 |
| 20260504080811 | 65 | 230 | 6.0 | 15.0 | 0.00 | 0.00 | 0.00 | 58 | 1012.6 |
| 20260504080309 | 65 | 250 | 6.0 | 13.0 | 0.00 | 0.00 | 0.00 | 57 | 1012.7 |
| 20260504050452 | 68 | 151 | 3.0 | 7.0 | 0.00 | 0.00 | 0.00 | 51 | 1014.5 |
| 20260504045949 | 68 | 155 | 3.0 | 7.0 | 0.00 | 0.00 | 0.00 | 51 | 1014.5 |
| 20260504045449 | 68 | 227 | 3.0 | 9.0 | 0.00 | 0.00 | 0.00 | 51 | 1014.6 |
| 20260504044924 | 68 | 132 | 3.0 | 9.0 | 0.00 | 0.00 | 0.00 | 50 | 1014.6 |
| 20260504044357 | 68 | 205 | 3.0 | 8.0 | 0.00 | 0.00 | 0.00 | 50 | 1014.6 |
| 20260504043853 | 68 | 271 | 3.0 | 8.0 | 0.00 | 0.00 | 0.00 | 50 | 1014.7 |
| 20260504043327 | 69 | 206 | 4.0 | 8.0 | 0.00 | 0.00 | 0.00 | 49 | 1014.6 |
| 20260504042825 | 69 | 250 | 4.0 | 10.0 | 0.00 | 0.00 | 0.00 | 49 | 1014.7 |
| 20260504042323 | 69 | 144 | 3.0 | 10.0 | 0.00 | 0.00 | 0.00 | 49 | 1014.7 |
| 20260504041822 | 69 | 217 | 3.0 | 7.0 | 0.00 | 0.00 | 0.00 | 49 | 1014.6 |
| 20260504041322 | 69 | 131 | 2.0 | 8.0 | 0.00 | 0.00 | 0.00 | 49 | 1014.7 |
| 20260504040823 | 69 | 211 | 3.0 | 8.0 | 0.00 | 0.00 | 0.00 | 49 | 1014.7 |
| 20260504040525 | 69 | 169 | 3.0 | 9.0 | 0.00 | 0.00 | 0.00 | 48 | 1014.7 |
| 20260504035733 | 69 | 210 | 3.0 | 9.0 | 0.00 | 0.00 | 0.00 | 48 | 1014.7 |
| 20260504035229 | 69 | 122 | 2.0 | 8.0 | 0.00 | 0.00 | 0.00 | 48 | 1014.7 |
| 20260504034730 | 69 | 181 | 3.0 | 8.0 | 0.00 | 0.00 | 0.00 | 48 | 1014.7 |
| 20260504034212 | 69 | 192 | 2.0 | 6.0 | 0.00 | 0.00 | 0.00 | 47 | 1014.7 |
| 20260504033716 | 69 | 133 | 1.0 | 5.0 | 0.00 | 0.00 | 0.00 | 47 | 1014.7 |
| 20260504033200 | 69 | 190 | 2.0 | 6.0 | 0.00 | 0.00 | 0.00 | 47 | 1014.7 |
| 20260504032701 | 69 | 158 | 2.0 | 6.0 | 0.00 | 0.00 | 0.00 | 46 | 1014.6 |
| 20260504032200 | 70 | 174 | 2.0 | 7.0 | 0.00 | 0.00 | 0.00 | 46 | 1014.6 |
| 20260504031702 | 70 | 235 | 2.0 | 7.0 | 0.00 | 0.00 | 0.00 | 46 | 1014.6 |
| 20260504031143 | 70 | 184 | 2.0 | 7.0 | 0.00 | 0.00 | 0.00 | 45 | 1014.5 |
| 20260504030631 | 70 | 226 | 2.0 | 6.0 | 0.00 | 0.00 | 0.00 | 45 | 1014.4 |
| 20260504030129 | 70 | 124 | 2.0 | 6.0 | 0.00 | 0.00 | 0.00 | 44 | 1014.4 |
| 20260504025840 | 71 | 210 | 2.0 | 6.0 | 0.00 | 0.00 | 0.00 | 45 | 1014.5 |
| 20260504025119 | 71 | 217 | 2.0 | 4.0 | 0.00 | 0.00 | 0.00 | 44 | 1014.4 |
| 20260504024611 | 71 | 159 | 2.0 | 6.0 | 0.00 | 0.00 | 0.00 | 44 | 1014.5 |
| 20260504024108 | 71 | 151 | 2.0 | 6.0 | 0.00 | 0.00 | 0.00 | 44 | 1014.5 |
| 20260504023605 | 71 | 191 | 2.0 | 6.0 | 0.00 | 0.00 | 0.00 | 43 | 1014.5 |
| 20260504023105 | 71 | 198 | 2.0 | 6.0 | 0.00 | 0.00 | 0.00 | 43 | 1014.5 |
| 20260504022815 | 71 | 251 | 2.0 | 7.0 | 0.00 | 0.00 | 0.00 | 43 | 1014.5 |
| 20260504022053 | 72 | 229 | 3.0 | 8.0 | 0.00 | 0.00 | 0.00 | 42 | 1014.5 |
| 20260504021554 | 72 | 134 | 4.0 | 8.0 | 0.00 | 0.00 | 0.00 | 41 | 1014.4 |
| 20260504021033 | 72 | 149 | 4.0 | 8.0 | 0.00 | 0.00 | 0.00 | 41 | 1014.4 |
| 20260504020512 | 73 | 210 | 4.0 | 10.0 | 0.00 | 0.00 | 0.00 | 41 | 1014.3 |
| 20260504020012 | 73 | 200 | 4.0 | 10.0 | 0.00 | 0.00 | 0.00 | 40 | 1014.3 |
| 20260504015735 | 73 | 186 | 4.0 | 9.0 | 0.00 | 0.00 | 0.00 | 40 | 1014.3 |
| 20260504015226 | 73 | 208 | 4.0 | 7.0 | 0.00 | 0.00 | 0.00 | 39 | 1014.3 |
| 20260504014447 | 73 | 123 | 4.0 | 9.0 | 0.00 | 0.00 | 0.00 | 38 | 1014.3 |
| 20260504014147 | 74 | 179 | 4.0 | 10.0 | 0.00 | 0.00 | 0.00 | 38 | 1014.3 |
| 20260504013618 | 74 | 240 | 4.0 | 10.0 | 0.00 | 0.00 | 0.00 | 38 | 1014.2 |
| 20260504012831 | 74 | 94 | 4.0 | 10.0 | 0.00 | 0.00 | 0.00 | 37 | 1014.1 |
| 20260504012331 | 74 | 207 | 5.0 | 10.0 | 0.00 | 0.00 | 0.00 | 37 | 1014.1 |
| 20260504011825 | 74 | 256 | 5.0 | 10.0 | 0.00 | 0.00 | 0.00 | 37 | 1014.1 |
| 20260504011446 | 75 | 163 | 4.0 | 10.0 | 0.00 | 0.00 | 0.00 | 36 | 1014.1 |
| 20260504011323 | 75 | 130 | 4.0 | 10.0 | 0.00 | 0.00 | 0.00 | 36 | 1014.1 |
| 20260504010211 | 75 | 163 | 4.0 | 9.0 | 0.00 | 0.00 | 0.00 | 35 | 1014.1 |
| 20260504005646 | 75 | 250 | 5.0 | 11.0 | 0.00 | 0.00 | 0.00 | 34 | 1014.0 |
| 20260504005123 | 76 | 141 | 5.0 | 11.0 | 0.00 | 0.00 | 0.00 | 34 | 1014.1 |
| 20260504004842 | 76 | 236 | 5.0 | 11.0 | 0.00 | 0.00 | 0.00 | 33 | 1014.1 |
| 20260504004120 | 76 | 219 | 6.0 | 11.0 | 0.00 | 0.00 | 0.00 | 32 | 1014.1 |
| 20260504003623 | 76 | 212 | 5.0 | 11.0 | 0.00 | 0.00 | 0.00 | 32 | 1014.1 |
| 20260504003120 | 77 | 229 | 5.0 | 10.0 | 0.00 | 0.00 | 0.00 | 31 | 1014.1 |
| 20260504002620 | 77 | 169 | 5.0 | 15.0 | 0.00 | 0.00 | 0.00 | 31 | 1014.1 |
| 20260504002057 | 78 | 225 | 7.0 | 15.0 | 0.00 | 0.00 | 0.00 | 31 | 1014.0 |
| 20260504001752 | 78 | 134 | 7.0 | 15.0 | 0.00 | 0.00 | 0.00 | 31 | 1014.1 |
| 20260504001005 | 78 | 210 | 6.0 | 15.0 | 0.00 | 0.00 | 0.00 | 31 | 1014.2 |
| 20260504000440 | 78 | 162 | 6.0 | 13.0 | 0.00 | 0.00 | 0.00 | 31 | 1014.2 |
| 20260503235935 | 79 | 205 | 6.0 | 13.0 | 0.00 | 0.00 | 0.00 | 31 | 1014.2 |
| 20260503235436 | 79 | 137 | 6.0 | 11.0 | 0.00 | 0.00 | 0.00 | 31 | 1014.2 |
| 20260503235146 | 79 | 214 | 6.0 | 15.0 | 0.00 | 0.00 | 0.00 | 30 | 1014.2 |
| 20260503234646 | 79 | 227 | 6.0 | 15.0 | 0.00 | 0.00 | 0.00 | 31 | 1014.3 |
| 20260503234357 | 79 | 229 | 6.0 | 17.0 | 0.00 | 0.00 | 0.00 | 31 | 1014.3 |
| 20260503233411 | 79 | 186 | 6.0 | 17.0 | 0.00 | 0.00 | 0.00 | 30 | 1014.4 |
| 20260503232909 | 79 | 180 | 5.0 | 13.0 | 0.00 | 0.00 | 0.00 | 31 | 1014.4 |
| 20260503232406 | 79 | 203 | 6.0 | 13.0 | 0.00 | 0.00 | 0.00 | 30 | 1014.4 |
| 20260503231842 | 80 | 238 | 7.0 | 15.0 | 0.00 | 0.00 | 0.00 | 31 | 1014.4 |
| 20260503231315 | 80 | 148 | 7.0 | 15.0 | 0.00 | 0.00 | 0.00 | 30 | 1014.4 |
| 20260503230746 | 80 | 236 | 7.0 | 13.0 | 0.00 | 0.00 | 0.00 | 30 | 1014.3 |
| 20260503230507 | 80 | 154 | 7.0 | 12.0 | 0.00 | 0.00 | 0.00 | 30 | 1014.5 |
| 20260503225716 | 81 | 210 | 6.0 | 12.0 | 0.00 | 0.00 | 0.00 | 31 | 1014.5 |
| 20260503225214 | 81 | 205 | 6.0 | 14.0 | 0.00 | 0.00 | 0.00 | 30 | 1014.5 |
| 20260503225133 | 81 | 207 | 5.0 | 14.0 | 0.00 | 0.00 | 0.00 | 28 | 1014.5 |
| 20260503224145 | 81 | 234 | 5.0 | 11.0 | 0.00 | 0.00 | 0.00 | 28 | 1014.5 |
| 20260503223635 | 82 | 149 | 5.0 | 10.0 | 0.00 | 0.00 | 0.00 | 29 | 1014.6 |
| 20260503223136 | 81 | 212 | 5.0 | 12.0 | 0.00 | 0.00 | 0.00 | 30 | 1014.7 |
| 20260503222621 | 81 | 164 | 5.0 | 12.0 | 0.00 | 0.00 | 0.00 | 27 | 1014.7 |
| 20260503222057 | 82 | 233 | 5.0 | 13.0 | 0.00 | 0.00 | 0.00 | 27 | 1014.9 |
| 20260503221747 | 82 | 247 | 5.0 | 13.0 | 0.00 | 0.00 | 0.00 | 27 | 1014.8 |
| 20260503221026 | 82 | 212 | 5.0 | 11.0 | 0.00 | 0.00 | 0.00 | 26 | 1014.9 |
| 20260503220524 | 82 | 259 | 6.0 | 12.0 | 0.00 | 0.00 | 0.00 | 27 | 1014.9 |
| 20260503215429 | 82 | 167 | 7.0 | 14.0 | 0.00 | 0.00 | 0.00 | 26 | 1015.0 |
| 20260503214928 | 82 | 240 | 7.0 | 14.0 | 0.00 | 0.00 | 0.00 | 28 | 1015.0 |
| 20260503214641 | 82 | 249 | 7.0 | 13.0 | 0.00 | 0.00 | 0.00 | 27 | 1015.1 |
| 20260503213919 | 82 | 161 | 6.0 | 12.0 | 0.00 | 0.00 | 0.00 | 30 | 1015.1 |
| 20260503213611 | 82 | 234 | 6.0 | 11.0 | 0.00 | 0.00 | 0.00 | 30 | 1015.2 |
| 20260503212849 | 82 | 212 | 6.0 | 15.0 | 0.00 | 0.00 | 0.00 | 27 | 1015.2 |
| 20260503212321 | 82 | 252 | 6.0 | 15.0 | 0.00 | 0.00 | 0.00 | 28 | 1015.3 |
| 20260503211820 | 82 | 212 | 5.0 | 11.0 | 0.00 | 0.00 | 0.00 | 28 | 1015.4 |
| 20260503211511 | 82 | 243 | 6.0 | 11.0 | 0.00 | 0.00 | 0.00 | 27 | 1015.5 |
| 20260503210748 | 82 | 238 | 6.0 | 10.0 | 0.00 | 0.00 | 0.00 | 27 | 1015.6 |
| 20260503210507 | 82 | 235 | 5.0 | 12.0 | 0.00 | 0.00 | 0.00 | 26 | 1015.8 |
| 20260503205743 | 82 | 253 | 6.0 | 11.0 | 0.00 | 0.00 | 0.00 | 29 | 1015.7 |
| 20260503205505 | 82 | 214 | 4.0 | 11.0 | 0.00 | 0.00 | 0.00 | 27 | 1015.8 |
| 20260503204716 | 82 | 200 | 4.0 | 13.0 | 0.00 | 0.00 | 0.00 | 26 | 1015.9 |
| 20260503204145 | 82 | 148 | 5.0 | 13.0 | 0.00 | 0.00 | 0.00 | 26 | 1016.1 |
| 20260503203645 | 82 | 214 | 6.0 | 12.0 | 0.00 | 0.00 | 0.00 | 29 | 1016.2 |
| 20260503203132 | 82 | 223 | 6.0 | 14.0 | 0.00 | 0.00 | 0.00 | 26 | 1016.3 |
| 20260503202635 | 83 | 240 | 5.0 | 14.0 | 0.00 | 0.00 | 0.00 | 27 | 1016.4 |
| 20260503202125 | 83 | 219 | 4.0 | 11.0 | 0.00 | 0.00 | 0.00 | 26 | 1016.4 |
| 20260503201556 | 82 | 253 | 5.0 | 10.0 | 0.00 | 0.00 | 0.00 | 28 | 1016.5 |
| 20260503201033 | 82 | 231 | 5.0 | 11.0 | 0.00 | 0.00 | 0.00 | 26 | 1016.6 |
| 20260503200504 | 82 | 229 | 5.0 | 11.0 | 0.00 | 0.00 | 0.00 | 28 | 1016.7 |
| 20260503200002 | 82 | 251 | 5.0 | 13.0 | 0.00 | 0.00 | 0.00 | 29 | 1016.8 |
| 20260503195501 | 82 | 178 | 4.0 | 9.0 | 0.00 | 0.00 | 0.00 | 28 | 1016.9 |